Dewpoint
23 22 19 19 20 25 27 21 19 14 14 13 14 15 13 12 12 12 12 13 14 14 14 13 16 15 14 14 15 19 29 49 54 56 59 61 61 61 61 60 60 60 61 61 62 62 62 62 63 63 64 63 64 64 64 65 65 66 65 65 64 64 65 64 64 64 64 64 64 65 65 64 63 63 63 63 62 63 63 64 63 64 64 64 64 63
25 23 22 23 24 25 26 26 25 23 22 17 18 16 14 12 13 13 12 13 14 18 18 21 20 20 19 20 21 21 30 42 49 53 57 60 61 61 61 60 60 60 61 61 61 62 62 62 63 63 63 63 62 63 64 64 64 65 65 65 64 64 64 64 64 64 64 64 64 64 64 63 63 63 62 61 62 62 63 63 63 63 64 64 63 63
21 20 22 25 25 30 30 31 27 23 22 21 18 18 14 14 13 13 14 16 19 20 16 20 18 17 18 19 21 22 23 31 44 50 56 58 60 61 61 60 60 60 60 60 61 61 61 61 62 63 63 63 63 63 63 64 64 64 64 64 63 63 63 63 63 63 63 63 64 64 63 63 61 61 62 62 62 63 62 62 63 63 63 63 63 63
23 23 24 23 27 24 23 27 26 25 25 20 21 16 14 15 13 12 20 20 21 22 19 18 18 20 22 23 22 23 21 20 29 45 53 58 59 60 60 60 59 59 59 59 59 60 60 62 62 62 62 62 62 62 62 63 63 64 64 63 63 63 63 62 63 62 62 63 63 63 63 62 61 60 62 62 62 62 62 62 63 63 62 62 62 62
23 22 21 23 24 22 23 25 22 19 18 25 22 18 15 15 15 12 15 21 25 25 29 21 21 18 20 18 17 23 26 24 17 37 48 55 58 60 61 60 60 59 59 59 59 59 60 61 61 62 61 62 62 62 62 62 63 63 63 63 63 63 62 62 63 62 62 62 61 61 61 62 61 61 61 61 60 60 62 62 63 63 63 62 62 62
22 24 23 20 21 20 22 21 22 22 19 21 25 19 17 16 15 15 21 18 20 17 27 16 14 17 18 18 20 24 29 20 26 33 43 53 57 59 59 59 60 59 59 59 59 59 60 61 61 61 61 61 61 62 62 62 63 63 63 63 62 62 62 62 62 62 63 62 61 61 61 60 59 59 59 59 60 60 61 61 61 62 63 62 62 62
21 27 23 21 22 22 20 19 22 21 18 16 17 22 18 16 17 16 19 19 16 14 21 25 13 15 16 17 21 30 38 42 42 39 42 53 56 58 59 59 59 59 59 59 59 59 59 60 61 61 60 60 60 61 62 62 62 63 63 62 62 62 62 62 62 62 63 61 61 61 61 60 60 59 57 57 59 60 59 60 61 61 62 62 62 61
20 20 21 23 23 20 20 17 21 19 17 14 20 21 18 17 17 19 20 17 17 26 28 24 17 12 11 16 24 34 41 43 45 46 47 52 55 57 59 59 59 59 59 59 59 59 59 60 60 60 60 60 60 60 61 62 62 62 62 62 62 62 62 62 62 62 62 61 60 60 60 60 59 60 59 59 59 58 60 60 60 60 61 61 61 61
25 22 23 20 23 19 16 17 24 18 15 15 25 19 18 17 17 18 18 21 22 17 15 18 24 14 15 21 29 39 38 41 45 46 48 52 56 58 59 59 59 59 58 58 58 58 59 59 60 60 60 60 59 60 61 61 61 62 62 62 62 62 61 61 61 62 61 61 60 60 59 59 59 59 59 59 59 59 59 59 58 59 59 59 59 59
20 19 19 18 18 17 17 16 20 17 16 18 24 22 20 21 22 22 21 20 18 13 13 16 22 11 12 19 36 39 38 42 43 47 51 55 57 58 59 59 59 58 58 58 58 58 58 59 59 60 59 58 58 59 61 61 61 61 62 62 62 61 61 61 61 61 60 60 60 59 59 59 58 58 57 58 57 57 58 58 57 58 58 57 57 57
24 36 26 16 16 17 16 15 18 17 15 22 19 18 18 23 21 26 22 21 16 8 13 18 22 14 11 19 36 40 42 45 46 46 51 56 57 58 59 59 59 58 58 58 58 58 58 58 58 58 58 57 58 58 59 60 61 61 62 62 61 60 60 61 61 61 59 59 59 59 58 58 57 57 57 56 55 55 56 57 57 57 55 55 55 57
21 19 17 17 25 16 14 13 16 17 18 17 19 17 18 18 18 16 20 19 8 10 14 17 19 18 11 19 34 43 48 49 48 46 49 55 56 58 58 58 58 58 58 58 57 56 55 55 55 56 57 58 58 59 60 60 61 61 61 60 60 60 60 60 60 60 59 58 58 58 58 57 57 57 57 57 55 56 56 56 56 54 55 55 55 55
21 19 18 17 37 15 14 12 14 17 16 15 21 19 15 15 10 7 14 7 7 11 15 23 22 17 15 23 43 47 48 50 48 47 49 55 56 57 57 57 57 58 58 57 55 53 53 54 55 55 56 57 59 59 60 60 61 61 61 60 60 60 60 60 60 59 58 57 57 57 57 57 57 58 57 56 55 55 56 55 55 55 55 54 55 55
20 23 18 17 16 23 15 14 15 13 17 16 14 16 14 9 6 2 8 10 12 16 17 19 24 15 24 32 43 48 50 51 50 51 55 56 57 56 56 57 56 55 54 54 54 54 54 55 56 57 57 58 59 60 60 60 61 61 61 61 60 60 60 59 59 58 57 57 57 57 57 57 57 57 57 55 55 55 55 56 55 55 55 55 55 55
12 14 18 16 16 19 14 14 13 16 18 15 16 14 15 14 9 3 11 5 7 10 16 23 16 14 24 31 48 49 51 52 51 55 56 56 56 55 55 54 54 54 54 54 53 54 55 55 56 57 57 58 59 60 60 61 61 61 61 61 60 58 58 58 57 57 57 56 56 57 56 56 57 57 56 55 56 55 55 55 55 55 55 55 55 55
16 16 18 18 15 15 13 15 15 15 16 17 16 14 15 15 18 11 15 14 15 13 12 21 26 34 33 43 47 49 52 52 53 53 53 53 54 53 53 53 53 54 54 54 54 55 56 56 57 57 58 59 59 60 60 61 61 61 61 61 59 57 57 57 56 56 56 56 55 55 55 55 56 57 56 55 56 56 56 55 55 54 54 55 55 54
16 18 20 20 18 16 14 19 17 13 14 21 12 14 16 19 17 16 16 20 14 15 12 21 35 38 39 36 43 49 50 51 52 52 52 51 52 53 53 53 54 54 55 54 54 55 55 56 57 58 58 59 59 59 60 60 61 61 61 59 57 57 57 57 57 57 56 55 55 54 55 55 55 55 55 55 55 56 55 55 55 55 54 54 54 54
14 15 20 17 16 16 15 16 15 15 18 13 13 13 21 22 23 16 10 13 8 7 11 27 31 31 28 26 40 47 49 50 51 51 51 51 51 51 52 53 53 54 55 55 55 55 56 57 57 57 58 59 59 59 59 59 59 59 59 57 57 57 57 57 57 57 56 56 55 54 54 55 55 55 55 55 55 56 55 55 55 54 54 54 54 55
18 16 20 18 15 14 24 14 13 15 20 17 19 17 16 13 11 18 18 8 7 6 6 22 29 31 28 28 37 44 46 48 49 50 50 49 50 51 52 53 54 55 55 55 55 55 56 56 57 57 57 58 58 59 59 59 59 57 57 57 57 57 58 58 58 58 57 56 55 55 54 54 54 55 55 55 55 56 55 55 55 54 54 53 54 55
25 17 20 22 18 19 21 19 15 19 17 19 20 19 26 22 22 13 14 17 16 5 10 17 27 22 31 31 37 39 45 49 49 49 49 50 51 52 52 53 54 54 54 54 55 55 56 57 58 58 58 58 58 58 58 59 58 57 56 56 57 58 58 58 57 57 57 56 56 55 55 55 55 55 55 55 55 55 55 55 54 54 53 53 54 53
20 20 14 20 22 19 19 28 21 20 16 13 15 16 20 26 28 22 22 16 15 11 11 13 17 23 29 39 44 44 46 48 49 49 50 50 51 52 53 53 54 54 54 55 55 56 56 57 58 58 58 58 58 58 58 58 57 56 56 56 57 57 57 57 57 57 57 57 56 56 55 55 55 55 55 55 55 55 55 54 54 53 53 53 53 52
23 21 19 24 22 21 19 27 30 26 21 17 16 17 20 22 18 13 16 21 22 17 11 17 14 23 31 45 46 46 45 48 49 49 49 50 51 52 52 53 53 54 55 55 56 56 57 57 58 58 57 58 58 58 58 58 58 57 57 57 57 57 57 57 57 57 56 56 56 55 55 55 54 55 55 55 54 54 54 53 53 53 53 52 52 52
28 26 24 19 22 22 24 26 28 32 33 30 31 28 28 25 21 17 9 16 22 24 23 22 19 21 37 44 46 48 48 49 49 49 49 50 50 51 52 53 53 54 55 55 55 56 57 57 57 57 57 57 57 57 57 57 57 57 56 56 56 56 56 57 57 57 57 56 56 56 56 55 55 55 55 54 54 54 53 53 53 53 52 52 51 52
48 23 24 24 24 27 27 28 27 28 28 29 32 33 30 26 23 20 20 22 20 22 21 19 17 23 36 45 48 48 48 46 48 50 50 50 51 51 52 52 53 53 54 55 55 55 56 56 57 57 57 57 57 56 57 57 57 57 56 56 56 56 56 56 56 56 56 56 56 56 55 55 55 55 54 54 53 53 53 53 53 53 52 51 51 51
27 29 24 20 17 21 24 24 25 25 32 29 29 31 33 32 31 28 25 25 20 24 22 20 16 26 35 46 48 48 47 47 49 50 50 50 50 50 51 50 50 51 51 51 52 53 53 54 54 55 55 55 55 56 56 56 57 57 57 56 55 55 55 56 56 56 56 56 56 55 55 55 55 55 55 55 54 53 53 53 53 52 51 51 50 49
31 30 25 20 15 13 13 14 15 15 24 28 32 33 34 29 28 23 16 18 15 19 23 18 20 29 42 46 47 47 47 47 49 50 49 49 48 48 47 46 46 46 46 49 49 48 48 50 52 53 54 55 55 55 55 56 56 56 56 56 56 55 55 55 56 56 56 56 55 55 55 55 55 55 55 55 55 55 54 53 53 52 51 50 50 49
30 32 31 26 20 20 19 20 23 29 27 26 29 32 33 33 33 25 23 18 16 17 18 24 32 36 40 43 45 46 46 47 47 47 45 44 43 44 43 43 42 43 43 43 44 46 44 44 45 48 51 54 55 56 56 56 56 56 56 56 56 55 55 55 56 56 56 55 54 54 54 55 55 55 55 55 55 56 55 54 54 54 53 52 51 50
32 29 31 31 32 30 31 29 30 31 28 31 31 31 33 34 32 27 22 21 25 23 17 27 36 37 39 43 45 45 47 46 45 43 41 40 41 41 41 42 42 41 42 43 42 41 41 41 42 45 49 52 54 55 56 56 56 56 56 56 56 56 55 55 55 55 55 54 54 54 54 54 55 55 56 55 55 56 55 55 55 54 54 53 52 51
32 29 32 32 31 34 35 33 33 33 31 30 30 30 33 36 33 30 30 30 25 18 21 31 38 38 40 43 45 46 45 42 40 38 38 39 41 41 40 39 39 39 40 41 41 41 40 43 44 46 49 51 52 51 52 52 52 53 54 56 56 56 55 55 54 54 54 54 54 54 54 54 55 55 55 54 54 54 55 55 55 54 54 54 53 53
34 31 34 33 31 33 35 34 33 32 30 29 30 30 33 36 37 35 34 34 29 26 30 39 39 37 39 42 44 42 40 39 38 38 37 38 39 39 38 38 39 39 39 40 40 40 41 42 43 43 43 43 40 40 40 40 40 43 46 48 49 51 53 54 55 55 55 55 55 55 55 55 55 55 54 54 55 55 55 55 55 54 54 54 53 53
32 28 36 35 30 31 34 35 33 31 28 28 29 30 30 32 36 37 39 39 39 39 39 39 37 35 39 42 41 40 38 37 37 36 37 37 37 37 37 37 37 38 39 39 39 39 39 40 41 41 40 41 38 38 37 37 37 37 38 38 42 45 45 46 47 47 50 53 55 55 55 54 54 54 54 54 54 54 55 55 54 54 54 53 53 52
34 29 33 32 28 29 33 33 33 33 30 28 28 29 30 30 32 34 34 37 37 36 37 37 36 33 38 40 39 38 36 35 36 36 36 36 36 35 35 36 37 37 38 39 39 40 40 40 38 39 39 38 36 35 35 35 34 35 35 36 38 42 43 41 41 41 42 43 45 47 49 50 50 51 52 53 53 53 53 53 53 53 53 52 52 52
34 32 29 30 30 27 33 34 32 29 30 27 25 30 31 32 33 35 37 37 37 38 36 35 35 37 38 39 36 36 35 35 35 36 36 37 38 38 38 38 39 39 39 39 39 39 40 39 38 37 35 34 34 34 34 34 34 34 34 35 36 36 36 36 37 37 38 38 39 39 40 41 43 41 42 44 46 47 47 47 47 48 49 50 50 50
36 34 30 32 29 28 32 32 30 28 23 25 31 34 34 32 32 33 33 34 36 36 34 35 35 37 38 37 34 33 34 34 35 36 38 38 37 37 38 38 39 39 39 40 41 40 39 39 38 37 35 34 34 34 35 35 34 35 36 35 35 35 35 35 36 36 36 37 38 38 37 38 38 38 38 38 39 41 41 41 42 45 46 46 46 45
32 32 31 31 30 28 31 31 28 24 24 33 36 37 37 37 35 34 34 35 35 36 35 34 33 33 34 33 33 33 34 35 36 36 36 37 36 36 35 37 37 38 39 39 39 40 40 39 38 39 38 37 36 35 34 34 34 34 34 35 34 35 35 35 35 36 36 36 37 37 36 37 37 38 37 39 40 39 40 38 39 40 43 43 43 43
30 31 29 29 28 28 29 28 22 22 32 35 35 36 37 38 36 35 34 34 34 35 34 33 33 33 34 34 35 35 35 35 36 37 37 37 38 37 37 37 37 38 38 39 38 39 40 40 40 39 39 40 38 36 34 34 34 34 34 35 34 34 35 35 35 36 36 36 36 36 36 36 36 37 37 39 39 39 40 39 38 39 41 41 41 42
33 31 30 28 27 23 24 26 25 30 31 32 32 33 32 31 33 32 30 32 34 35 34 33 34 34 34 35 35 35 35 34 33 34 38 38 38 38 38 38 38 39 39 40 40 40 40 41 41 41 40 39 38 37 37 37 35 35 34 34 34 34 35 35 35 35 36 36 36 36 36 36 36 36 36 37 36 37 38 39 39 38 39 39 40 39
33 29 28 26 24 25 24 22 23 22 21 27 33 35 36 36 36 37 33 31 35 34 35 34 33 34 35 35 35 36 35 32 30 31 35 37 38 38 39 39 39 40 39 39 40 40 40 39 40 41 40 40 40 40 40 39 38 35 35 35 34 34 34 34 35 35 36 36 36 36 36 36 36 36 36 36 36 37 37 37 37 37 38 37 36 40
31 31 29 28 24 22 20 19 19 18 23 30 31 32 35 36 37 36 31 30 34 36 35 34 33 34 34 35 35 37 36 31 29 32 33 36 36 38 37 39 39 40 41 40 39 39 39 39 39 40 40 39 38 40 40 40 40 37 35 35 35 35 35 35 35 35 35 36 36 36 37 36 36 36 35 35 36 36 37 37 37 37 37 36 36 37
28 28 28 26 23 23 19 21 22 27 26 31 32 32 33 35 36 33 24 25 32 35 34 34 33 34 35 35 37 37 34 30 30 32 35 35 36 37 37 37 38 39 40 40 39 39 39 37 35 35 36 37 36 37 38 40 40 39 37 36 35 35 35 35 35 36 36 36 36 36 37 37 37 37 36 35 36 36 36 37 36 36 36 36 35 35
22 23 26 22 20 23 25 25 26 27 30 32 32 33 33 35 34 25 21 27 33 34 35 35 34 35 36 35 36 33 36 37 36 35 35 36 36 36 39 39 40 40 40 39 39 38 37 36 35 34 34 35 35 35 35 36 36 37 36 36 35 35 36 36 36 36 36 36 36 36 36 36 36 36 36 36 36 37 37 36 36 36 35 35 35 35
22 20 22 22 23 21 21 22 23 25 29 32 33 33 34 32 27 24 31 35 34 34 35 36 35 34 34 33 35 36 35 36 36 36 35 35 36 37 38 38 38 39 39 40 39 37 36 36 36 37 38 37 37 37 36 35 35 35 35 35 35 36 36 36 36 36 36 36 36 36 36 36 36 37 37 37 36 35 35 36 36 36 36 35 35 35
22 18 20 21 22 20 18 19 20 20 27 33 32 31 33 28 28 32 34 34 37 36 35 35 36 35 35 35 35 34 35 35 35 36 36 36 36 37 38 38 38 38 38 38 37 36 35 35 35 35 35 36 37 37 36 36 35 35 35 35 36 37 37 36 36 36 36 36 36 37 36 36 36 36 36 36 36 35 35 36 36 36 36 35 35 34
26 19 19 17 25 20 21 21 22 28 31 34 32 28 31 32 36 35 34 33 36 38 35 35 34 34 34 34 33 34 35 35 33 32 32 33 35 36 36 36 37 37 37 37 36 35 35 34 35 36 36 36 36 36 35 35 35 35 34 34 36 36 36 36 37 36 36 36 35 35 36 36 36 35 35 36 36 36 35 35 35 35 35 35 35 34
28 24 21 21 27 19 22 26 31 33 33 34 34 34 33 32 33 33 33 34 37 36 38 36 35 35 35 36 33 30 30 31 31 31 31 31 32 31 31 32 32 32 33 34 34 35 35 35 34 34 35 35 36 35 35 34 34 34 33 34 36 35 35 35 35 35 35 35 35 35 35 35 35 35 35 35 35 35 35 35 35 34 35 35 34 34
28 28 27 27 26 28 29 30 31 30 31 31 32 33 31 31 32 32 32 31 31 34 35 36 36 36 35 35 31 30 29 30 30 31 31 32 32 32 33 31 32 33 33 34 34 34 34 34 34 34 34 34 35 35 35 34 34 33 34 35 35 34 34 34 34 34 34 34 34 34 34 34 34 34 34 35 34 35 35 35 35 35 35 34 34 34
25 25 24 23 26 23 23 29 30 30 31 31 31 32 33 33 32 32 32 33 33 31 31 33 35 34 32 31 33 30 29 30 31 32 32 32 31 30 30 30 31 32 33 33 34 34 34 34 34 34 34 34 34 34 35 34 34 34 35 34 34 34 34 34 34 34 33 33 34 34 34 34 35 34 34 34 34 35 35 35 35 35 35 35 34 34
23 26 25 24 23 18 24 29 29 29 30 31 32 31 32 33 34 35 35 36 37 38 38 37 36 34 32 32 33 34 33 32 32 32 31 31 30 30 30 30 31 32 32 33 34 34 34 34 34 34 34 34 34 34 34 34 34 33 33 33 33 33 33 34 33 32 32 33 33 34 34 34 33 34 34 34 33 34 34 34 34 34 34 34 34 34
22 29 20 24 23 25 25 27 27 27 29 29 30 32 33 32 33 33 34 34 34 35 36 37 37 36 37 36 36 36 34 34 32 31 30 30 30 30 30 30 30 31 32 33 33 33 33 34 34 33 34 33 33 33 33 33 33 33 32 33 32 32 32 32 32 31 31 32 33 33 34 34 34 33 34 33 34 33 33 34 34 34 35 34 34 34
26 24 24 22 19 17 22 24 25 19 20 26 27 29 30 31 32 32 33 32 32 32 33 34 34 36 36 36 36 34 32 30 30 29 29 29 29 29 30 30 31 32 32 32 33 33 34 34 34 33 33 32 32 32 32 32 33 33 33 33 32 32 33 33 31 31 31 32 32 33 33 34 33 33 33 33 33 33 34 32 35 35 34 34 35 35
24 25 23 16 17 18 25 26 26 24 24 26 27 28 29 30 30 31 31 31 31 31 31 30 30 31 31 31 32 30 29 29 28 29 29 29 29 29 29 30 31 31 32 32 32 32 32 32 33 33 32 31 32 32 32 32 31 31 32 32 32 31 32 32 32 31 31 32 32 33 33 33 32 32 32 32 32 32 32 33 34 34 34 35 35 35